Location: *
(45.1961°N, 1.9694°E)
Time: 09:13:30
(UTC+00:00)

Daily predictions for brighter satellites

Satellite Brightness Start Highest point End
(mag) Time Altitude Azimuth Time Altitude Azimuth Time Altitude Azimuth
Meteor 2-4 Rocket 4.3 19:03:02 10° N 19:07:55 35° ENE 19:12:48 10° SE
SPOT 3 Rocket 3.7 19:06:31 10° SSE 19:11:34 57° ENE 19:16:37 10° N
SJ-6B 3.1 19:08:36 10° SSE 19:12:29 52° ENE 19:16:28 10° N
Nadezhda 2 Rocket 4.5 19:09:32 10° N 19:15:42 83° E 19:21:53 10° S
Cosmos 1869 Rocket 4.1 19:14:24 10° SSW 19:18:40 63° W 19:23:01 10° N
Cosmos 1733 Rocket 3.5 19:15:47 10° SSE 19:19:48 40° E 19:23:52 10° NNE
Cosmos 1939 Rocket 4.4 19:20:21 10° SSW 19:24:09 39° W 19:27:54 10° NNW
Cosmos 1833 Rocket 3.8 19:20:22 10° SSE 19:24:39 23° E 19:28:55 10° NE
TSX-5 3.8 19:21:14 10° NNW 19:24:45 61° ENE 19:29:03 10° SE
Cosmos 1674 Rocket 4.2 19:21:20 10° N 19:25:21 36° ENE 19:29:20 10° SE
Cosmos 1515 4.4 19:22:09 10° N 19:25:42 35° ENE 19:29:14 10° SE
Cosmos 1536 4.3 19:24:33 10° SE 19:27:28 19° E 19:30:25 10° NE
Resurs 01 Rocket 2.6 19:23:47 10° SE 19:27:37 30° ENE 19:31:29 10° N
Cosmos 44 Rocket 3.2 19:23:35 10° NW 19:28:24 89° NE 19:33:05 10° SE
Abrixas rocket 3.0 19:28:24 10° W 19:31:22 44° N 19:34:21 10° ENE
Okean 3 3.4 19:27:49 10° N 19:32:01 71° E 19:36:13 10° SSE
Cosmos 2082 Rocket 3.5 19:29:46 10° SE 19:33:35 19° E 19:37:24 10° ENE
Cosmos 1898 Rocket 3.9 19:29:10 10° S 19:34:02 40° ESE 19:38:55 10° NE
Cosmos 923 Rocket 4.1 19:29:08 10° NNW 19:34:30 84° WSW 19:39:48 10° SSE
ASTEX 1 4.4 19:30:48 10° NNE 19:34:55 26° E 19:39:01 10° SE
USA 267 3.4 19:30:59 10° NE 19:37:33 82° NW 19:44:07 10° WSW
CZ-2C R/B 4.1 19:34:49 10° N 19:39:29 70° WNW 19:44:02 10° SSW
Cosmos 1697 Rocket 3.5 19:34:30 10° NNW 19:39:42 35° NE 19:43:58 14° ESE
CZ-2C R/B 4.1 19:38:38 10° NE 19:41:56 16° E 19:43:45 14° ESE
SL-16 R/B 4.5 19:43:25 10° NNE 19:44:26 10° NE 19:45:26 10° NE
Cosmos 1680 Rocket 3.5 19:39:12 10° NNW 19:44:28 89° WSW 19:49:41 10° SSE
Shenzhou-11 Module 2.0 19:43:27 10° W 19:46:11 51° S 19:47:44 22° ESE
H-2A R/B 1.9 19:48:41 10° SSE 19:53:41 86° ENE 19:58:38 10° NNW
CZ-2C R/B 3.2 19:50:22 14° SE 19:54:08 47° ENE 19:58:49 10° N
Meteor 1-5 Rocket 4.2 19:51:25 10° S 19:57:03 63° E 20:02:31 10° NNE
Cosmos 1553 Rocket 4.1 19:50:52 10° S 19:57:09 87° W 20:03:35 10° N
Cosmos 158 Rocket 4.2 19:52:49 10° NNW 19:58:05 58° ENE 20:02:03 18° SE
Aureole 3 Rocket 2.6 19:55:44 10° S 19:59:07 46° E 20:02:04 10° NNE
Meteor 1-11 Rocket 3.9 19:54:53 10° S 20:00:43 63° E 20:06:38 10° NNE
ARGOS 3.2 19:56:17 10° SSE 20:01:39 86° WSW 20:07:03 10° NNW
Cosmos 1980 Rocket 3.2 19:59:29 10° N 20:04:29 31° NE 20:07:34 19° E
Cosmos 990 Rocket 3.9 20:04:49 10° SSW 20:10:01 76° ESE 20:15:14 10° NNE
USA 234 3.3 20:06:52 19° SE 20:11:51 82° SW 20:18:28 10° NW
Cosmos 1937 Rocket 3.5 20:09:35 10° S 20:14:50 67° ESE 20:20:08 10° NNE
Iridium 2 3.8 20:13:12 25° SSE 20:15:10 53° E 20:18:51 10° NNE
GP-B 3.2 20:11:58 10° N 20:16:20 53° E 20:18:49 24° SSE
Spot 2 Rocket 3.6 20:13:44 23° SE 20:16:49 57° ENE 20:21:48 10° N
USA 186 4.4 20:15:49 10° SW 20:17:19 14° W 20:18:53 10° WNW
Cosmos 1709 Rocket 4.0 20:12:13 10° N 20:18:18 61° ENE 20:22:30 21° SSE
Cosmos 1500 3.1 20:14:37 10° S 20:18:28 89° W 20:22:20 10° N
Cosmos 2098 Rocket 3.6 20:13:32 10° N 20:18:30 70° E 20:23:12 18° SSE
COSMOS 2406 3.8 20:15:27 10° SW 20:21:05 61° WNW 20:26:46 10° NNE
SJ 16-02 1.2 20:17:06 10° SSW 20:21:30 78° ESE 20:25:57 10° NNE
Cosmos 1908 Rocket 3.5 20:18:24 10° S 20:22:52 77° E 20:27:21 10° NNE
Resurs 1-3 4.1 20:18:55 11° S 20:23:02 57° W 20:27:22 10° NNW
S3M 4.3 20:18:14 10° SSW 20:24:29 70° W 20:30:42 10° N
MTI 4.2 20:23:50 10° NNE 20:26:32 42° ENE 20:26:32 42° ENE
Cosmos 2369 3.6 20:23:58 10° NNW 20:29:40 88° ENE 20:32:49 28° SSE
Cosmos 1340 3.0 20:31:02 42° E 20:31:06 42° E 20:34:41 10° NNE
Meteor 1-23 Rocket 4.1 20:27:22 10° N 20:33:06 79° E 20:36:25 26° SSE
BREEZE-M DEB (TANK) 2.0 20:32:12 10° WNW 20:34:05 63° WSW 20:34:05 63° WSW
Meteor 2-16 Rocket 4.4 20:31:56 10° N 20:38:07 79° E 20:41:43 26° SSE
ADEOS Rocket 3.4 20:32:58 10° N 20:39:04 71° WNW 20:45:52 10° SSW
Cosmos 2315 Rocket 3.9 20:35:12 12° S 20:41:04 76° E 20:47:23 10° NNE
Okean 2 Rocket 4.0 20:42:53 31° ENE 20:42:53 31° ENE 20:46:23 10° NNE
Cosmos 1346 Rocket 2.5 20:47:49 59° S 20:48:29 79° E 20:52:21 10° NNE
SPOT 1/Viking Rocket 3.9 20:47:49 39° ESE 20:49:12 50° ENE 20:54:14 10° N
MetOp-B 4.1 20:47:46 31° S 20:50:25 84° WSW 20:55:49 10° NNW
Cosmos 2150 Rocket 3.9 20:49:29 32° S 20:51:45 63° ESE 20:56:55 10° NNE
Terra 2.9 20:53:27 28° ENE 20:53:46 28° ENE 20:57:49 10° N
Cosmos 2322 Rocket 3.6 20:51:21 10° N 20:55:53 24° NE 20:57:27 21° ENE
Cosmos 2298 Rocket 3.9 20:53:39 21° SSW 20:57:19 78° ESE 21:02:40 10° NNE
USA 32 3.9 20:53:07 10° N 20:58:23 75° E 20:59:51 48° SSE
Uosat 12 SS-18 rocket 4.4 20:52:58 10° NW 20:58:29 77° WSW 20:59:39 51° SSE
Sich 1 Rocket 3.5 20:57:44 47° S 20:59:02 87° ESE 21:03:32 10° N
DMSP B5D2-2 4.4 20:55:01 10° N 21:00:14 65° WNW 21:05:27 10° SSW
EO 1 Del DPAF 4.3 20:57:05 10° NNE 20:59:29 33° NE 20:59:29 33° NE
Cosmos 1782 Rocket 3.7 21:00:15 34° SSW 21:02:07 73° W 21:06:33 10° N
Cosmos 1536 4.4 20:59:54 10° SW 21:03:39 35° WNW 21:07:25 10° N
Resurs 01 Rocket 3.4 21:01:00 14° SSW 21:04:05 28° W 21:07:55 10° NW
USA 229 DEB 3.8 20:59:56 10° NW 21:07:13 85° SW 21:10:12 41° SSE
USA 229 3.8 21:00:02 10° NW 21:07:19 85° SW 21:10:17 41° SSE
Cosmos 2360 4.2 21:01:52 10° NNW 21:07:35 82° WSW 21:09:14 48° SSE
Abrixas rocket 3.4 21:04:33 10° WNW 21:06:43 39° NW 21:06:43 39° NW
Cosmos 1833 Rocket 3.2 21:02:34 10° SW 21:08:06 58° WNW 21:13:41 10° NNE
Cosmos 1743 3.4 21:10:47 44° NNE 21:10:47 44° NNE 21:13:32 10° NNE
NOSS 3-1 (A) 4.1 21:03:12 10° NW 21:10:40 70° NE 21:14:04 39° ESE
Cosmos 1048 Rocket 3.9 21:09:55 10° NNW 21:15:02 68° ENE 21:15:34 63° ESE
Cosmos 1666 3.6 21:15:40 40° WSW 21:16:27 47° WNW 21:20:10 10° N
Cosmos 2082 Rocket 2.4 21:11:26 10° SW 21:17:03 69° WNW 21:22:44 10° NNE
ERS-1 Rocket 2.8 21:18:50 68° SSE 21:19:31 89° E 21:24:35 10° NNW
MOS 1 Rocket 3.9 21:15:52 10° NNE 21:20:46 49° E 21:20:46 49° E
IGS 5A 3.5 21:22:00 75° N 21:22:00 75° N 21:25:51 10° NNW
CZ-2C R/B 2.8 21:17:25 10° N 21:22:43 72° WNW 21:25:16 32° SSW
Geosat 3.9 21:22:23 68° S 21:23:00 83° WSW 21:28:04 10° NNW
USA 245 4.5 21:22:06 42° SSW 21:23:38 60° W 21:29:31 10° NNW
Cosmos 1697 Rocket 3.6 21:18:27 10° NW 21:23:43 40° WSW 21:25:42 30° SSW
Cosmos 2278 4.4 21:18:57 10° NW 21:24:21 46° WSW 21:26:04 36° SSW
Cosmos 1975 Rocket 4.0 21:22:31 10° NNW 21:26:44 43° W 21:27:38 37° SW
Cosmos 2151 Rocket 4.3 21:27:53 45° NE 21:27:53 45° NE 21:31:11 10° NNE
SL-16 R/B 2.7 21:24:40 10° NNW 21:30:07 45° ENE 21:30:37 44° ENE
SPOT 5 2.7 21:35:02 70° NNW 21:35:02 70° NNW 21:38:57 10° NNW
Thor Agena Rocket 3.4 21:31:13 10° NNE 21:36:27 81° ESE 21:36:29 81° ESE
Cosmos 1125 Rocket 3.4 21:39:17 77° ENE 21:39:17 77° ENE 21:44:15 10° NNE
SL-27 R/B 4.5 21:41:11 26° N 21:41:11 26° N 21:42:57 10° NNE
Cosmos 2327 Rocket 4.4 21:33:22 10° N 21:39:49 77° E 21:40:40 66° SE
Cosmos 1269 Rocket 4.2 21:35:51 10° NNW 21:40:54 58° NE 21:40:54 58° NE
Meteor 2-15 4.3 21:40:27 70° SSE 21:41:06 78° E 21:47:14 10° NNE
CZ-4C R/B 3.0 21:43:11 36° ENE 21:43:11 36° ENE 21:46:52 10° NE
Cosmos 494 Rocket 4.2 21:36:54 10° NNW 21:41:41 60° NE 21:41:41 60° NE
Cosmos 2360 Rocket 3.5 21:38:26 10° N 21:43:11 27° NE 21:43:44 27° ENE
Cosmos 1300 Rocket 4.2 21:44:59 50° N 21:44:59 50° N 21:48:15 10° N
CARTOSAT-1 4.1 21:46:21 57° NW 21:46:21 57° NW 21:49:58 10° NNW
Cosmos 2219 Rocket 4.5 21:44:11 10° NNE 21:46:36 13° NE 21:48:37 11° ENE
Cosmos 1980 Rocket 2.8 21:43:17 10° NW 21:48:38 46° WSW 21:49:20 43° SW
Cosmos 1867 3.5 21:44:23 10° NW 21:49:44 85° WNW 21:49:44 85° WNW
NOSS 3-1 (C) 4.5 21:51:12 10° NW 21:58:37 53° WSW 22:00:39 44° SSW
Nadezhda 1 Rocket 3.8 21:59:10 79° SSW 21:59:36 88° W 22:05:45 10° N
SJ 16-02 4.4 21:58:30 10° W 22:00:41 13° NW 22:02:54 10° NNW
BREEZE M DEB (TANK) 3.5 22:00:28 10° W 22:03:58 50° NNE 22:11:48 10° ENE
Cosmos 2154 Rocket 3.8 21:58:32 10° N 22:04:49 87° W 22:05:05 83° SSW
Meteor 1-21 4.3 22:02:53 10° NNW 22:08:22 68° W 22:08:22 68° W
Cosmos 1025 Rocket 4.3 22:07:42 10° NNW 22:10:40 39° NW 22:10:40 39° NW
FALCON 9 R/B 4.1 22:10:53 10° WSW 22:28:08 42° SSW 22:28:08 42° SSW
Cosmos 2251 Rocket 4.5 22:25:58 10° N 22:30:05 42° NNE 22:30:05 42° NNE
Terra 3.2 22:32:20 32° WNW 22:32:20 32° WNW 22:35:47 10° NNW
Lacrosse 4 Rocket 3.6 22:28:29 10° N 22:30:25 21° NNE 22:30:25 21° NNE
Cosmos 2322 Rocket 2.8 22:34:49 10° NNW 22:39:15 52° WNW 22:39:15 52° WNW
Cosmos 2366 rocket 4.3 22:38:04 10° N 22:43:30 59° NE 22:43:30 59° NE
Cosmos 2333 Rocket 3.5 22:44:08 10° N 22:48:53 30° NE 22:48:53 30° NE
Cosmos 2341 Rocket 4.3 22:45:52 10° NNW 22:51:40 62° WNW 22:51:40 62° WNW
SL-8 Rocket 4.4 23:03:45 10° NNW 23:09:06 59° NW 23:09:06 59° NW
Mayak 1.1 23:06:34 10° N 23:08:18 23° NNW 23:08:18 23° NNW
SL-16 R/B 3.8 23:09:08 10° NW 23:12:28 26° WNW 23:12:28 26° WNW
Cosmos 2181 Rocket 4.5 23:16:44 55° NW 23:16:44 55° NW 23:22:04 10° N
Aureole 1 Rocket 4.3 23:09:56 10° NNW 23:16:50 72° NNW 23:16:50 72° NNW
Cosmos 2360 Rocket 3.4 23:22:01 10° NW 23:25:29 36° NW 23:25:29 36° NW
CZ-4C R/B 3.8 23:28:18 26° WNW 23:30:02 31° NNW 23:35:33 10° NNE
Cosmos 2219 Rocket 3.1 23:26:17 10° NNW 23:30:19 43° N 23:30:19 43° N
COSMOS 2428 3.6 23:35:01 10° NNW 23:39:02 46° N 23:39:02 46° N
Timation 2 Rocket 4.4 23:46:46 63° NNE 23:46:46 63° NNE 23:52:10 10° NNE
COSMOS 2455 3.6 23:42:37 10° NNW 23:46:59 50° NNW 23:46:59 50° NNW
ATLAS 2AS CENTAUR R/B 3.4 23:43:23 10° NNW 23:51:01 53° NE 23:52:23 47° ENE
